User: anonymous   Login
Location: Unspecified
(0.0000°N, 0.0000°E)
Time: 02:12:47
(UTC+00:00)
Language:

OBJECT H - Orbit

View from above orbital plane
View from above orbital plane
View from above satellite
View from above satellite

Ground track
Ground track

The orbit is defined by the following mean orbital elements,

1 57173U          26145.59539301 +.00000000 +00000-0 +41437-3 0 00001
2 57173  97.5062 208.6122 0010068 184.2220 175.8936 15.28063550    03
Epoch (UTC): 25 May 2026 14:17:21
Eccentricity: 0.0010068
inclination: 97.5062°
perigee height: 475 km
apogee height: 489 km
right ascension of ascending node: 208.6122°
argument of perigee: 184.2220°
revolutions per day: 15.28063550
mean anomaly at epoch: 175.8936°

The dashed part of the orbit path shows where the satellite is in the earth's shadow,  

DLR